APSTAR-6C

Last updated on Mon Dec 15 2025 00:02:56 GMT+0000 (Coordinated Universal Time)

1 43450U 18041A 25348.51432148 -.00000299 00000+0 00000+0 0 9999 2 43450 0.0282 345.4612 0003661 305.2205 111.9222 1.00268953 27953
UTC large
Height (km)
Speed (km/s)
/
Latitude / Longitude
Inclination (degrees)
Orbital Period (minutes)
Azimuth
Elevation
Range (km)
Doppler Factor

Next 0 passes for location: London (51.5072 / 0.1276)

Sorry there are no passes over London.